Location: Cheching
(60.0667°N, 164.2167°W)
Time: 20:01:34
(UTC+00:00)

DX 1 - Pass Details

Date: 30 January 2021
Orbit: 618 x 631 km, 98.5° (Epoch: 26 February)

Event Time Altitude Azimuth Distance (km) Brightness Sun altitude
Exits shadow 06:51:03 45° 238° (WSW) 853 ? -27.7°
Drops below altitude 10° 06:54:13 10° 214° (SW) 1,986 ? -28.1°
Sets 06:56:24 0° 211° (SSW) 2,888 ? -28.3°
